Time,TemperatureF,DewpointF,PressureIn,WindDirection,WindDirectionDegrees,WindSpeedMPH,WindSpeedGustMPH,Humidity,HourlyPrecipIn,Conditions,Clouds,dailyrainin,SolarRadiationWatts/m^2,SoftwareType,DateUTC
2013-01-08 00:02:00,37.0,28.0,-100.00,SE,144,1.0,5.0,69,0.00,,,0.00,0.000000,,2013-01-08 05:02:00,
2013-01-08 00:22:00,37.0,28.0,-100.00,SE,144,1.0,5.0,69,0.00,,,0.00,0.000000,,2013-01-08 05:22:00,
2013-01-08 00:33:00,37.0,28.0,-100.00,SE,144,1.0,5.0,69,0.00,,,0.00,0.000000,,2013-01-08 05:33:00,
2013-01-08 00:43:00,37.0,28.0,-100.00,SE,144,1.0,5.0,69,0.00,,,0.00,0.000000,,2013-01-08 05:43:00,
2013-01-08 00:53:00,37.0,28.0,-100.00,SE,144,1.0,5.0,69,0.00,,,0.00,0.000000,,2013-01-08 05:53:00,
2013-01-08 01:02:00,36.0,28.0,-100.00,NE,40,2.0,4.0,73,0.00,,,0.00,0.000000,,2013-01-08 06:02:00,
2013-01-08 01:22:00,36.0,28.0,-100.00,NE,40,2.0,4.0,73,0.00,,,0.00,0.000000,,2013-01-08 06:22:00,
2013-01-08 01:33:00,36.0,28.0,-100.00,NE,40,2.0,4.0,73,0.00,,,0.00,0.000000,,2013-01-08 06:33:00,
2013-01-08 01:43:00,36.0,28.0,-100.00,NE,40,2.0,4.0,73,0.00,,,0.00,0.000000,,2013-01-08 06:43:00,
2013-01-08 01:53:00,36.0,28.0,-100.00,NE,40,2.0,4.0,73,0.00,,,0.00,0.000000,,2013-01-08 06:53:00,
2013-01-08 02:02:00,36.0,28.0,-100.00,East,82,2.0,4.0,73,0.00,,,0.00,0.000000,,2013-01-08 07:02:00,
2013-01-08 02:32:00,36.0,28.0,-100.00,East,82,2.0,4.0,73,0.00,,,0.00,0.000000,,2013-01-08 07:32:00,
2013-01-08 02:42:00,36.0,28.0,-100.00,East,82,2.0,4.0,73,0.00,,,0.00,0.000000,,2013-01-08 07:42:00,
2013-01-08 02:52:00,36.0,28.0,-100.00,East,82,2.0,4.0,73,0.00,,,0.00,0.000000,,2013-01-08 07:52:00,
2013-01-08 03:02:00,34.0,29.0,-100.00,NNE,19,2.0,4.0,81,0.00,,,0.00,0.000000,,2013-01-08 08:02:00,
2013-01-08 03:22:00,34.0,29.0,-100.00,NNE,19,2.0,4.0,81,0.00,,,0.00,0.000000,,2013-01-08 08:22:00,
2013-01-08 03:32:00,34.0,29.0,-100.00,NNE,19,2.0,4.0,81,0.00,,,0.00,0.000000,,2013-01-08 08:32:00,
2013-01-08 03:42:00,34.0,29.0,-100.00,NNE,19,2.0,4.0,81,0.00,,,0.00,0.000000,,2013-01-08 08:42:00,
2013-01-08 03:53:00,34.0,29.0,-100.00,NNE,19,2.0,4.0,81,0.00,,,0.00,0.000000,,2013-01-08 08:53:00,
2013-01-08 04:02:00,35.0,28.0,-100.00,NE,51,2.0,4.0,76,0.00,,,0.00,0.000000,,2013-01-08 09:02:00,
2013-01-08 04:22:00,35.0,28.0,-100.00,NE,51,2.0,4.0,76,0.00,,,0.00,0.000000,,2013-01-08 09:22:00,
2013-01-08 04:33:00,35.0,28.0,-100.00,NE,51,2.0,4.0,76,0.00,,,0.00,0.000000,,2013-01-08 09:33:00,
2013-01-08 04:42:00,35.0,28.0,-100.00,NE,51,2.0,4.0,76,0.00,,,0.00,0.000000,,2013-01-08 09:42:00,
2013-01-08 04:53:00,35.0,28.0,-100.00,NE,51,2.0,4.0,76,0.00,,,0.00,0.000000,,2013-01-08 09:53:00,
2013-01-08 05:02:00,37.0,29.0,-100.00,NNE,30,4.0,6.0,72,0.00,,,0.00,0.000000,,2013-01-08 10:02:00,
2013-01-08 05:33:00,37.0,29.0,-100.00,NNE,30,4.0,6.0,72,0.00,,,0.00,0.000000,,2013-01-08 10:33:00,
2013-01-08 05:43:00,37.0,29.0,-100.00,NNE,30,4.0,6.0,72,0.00,,,0.00,0.000000,,2013-01-08 10:43:00,
2013-01-08 05:53:00,37.0,29.0,-100.00,NNE,30,4.0,6.0,72,0.00,,,0.00,0.000000,,2013-01-08 10:53:00,
2013-01-08 06:02:00,37.0,29.0,-100.00,NNE,21,3.0,6.0,74,0.00,,,0.00,0.000000,,2013-01-08 11:02:00,
2013-01-08 06:33:00,37.0,29.0,-100.00,NNE,21,3.0,6.0,74,0.00,,,0.00,0.000000,,2013-01-08 11:33:00,
2013-01-08 06:43:00,37.0,29.0,-100.00,NNE,21,3.0,6.0,74,0.00,,,0.00,0.000000,,2013-01-08 11:43:00,
2013-01-08 06:53:00,37.0,29.0,-100.00,NNE,21,3.0,6.0,74,0.00,,,0.00,0.000000,,2013-01-08 11:53:00,
2013-01-08 07:02:00,37.0,30.0,-100.00,NNE,29,2.0,5.0,75,0.00,,,0.00,0.000000,,2013-01-08 12:02:00,
2013-01-08 07:33:00,37.0,30.0,-100.00,NNE,29,2.0,5.0,75,0.00,,,0.00,0.000000,,2013-01-08 12:33:00,
2013-01-08 07:43:00,37.0,30.0,-100.00,NNE,29,2.0,5.0,75,0.00,,,0.00,0.000000,,2013-01-08 12:43:00,
2013-01-08 07:53:00,37.0,30.0,-100.00,NNE,29,2.0,5.0,75,0.00,,,0.00,0.000000,,2013-01-08 12:53:00,
2013-01-08 08:02:00,38.0,30.0,-100.00,NE,38,2.0,4.0,72,0.00,,,0.00,1.000000,,2013-01-08 13:02:00,
2013-01-08 08:33:00,38.0,30.0,-100.00,NE,38,2.0,4.0,72,0.00,,,0.00,1.000000,,2013-01-08 13:33:00,
2013-01-08 08:43:00,38.0,30.0,-100.00,NE,38,2.0,4.0,72,0.00,,,0.00,1.000000,,2013-01-08 13:43:00,
2013-01-08 08:53:00,38.0,30.0,-100.00,NE,38,2.0,4.0,72,0.00,,,0.00,1.000000,,2013-01-08 13:53:00,
2013-01-08 09:02:00,40.0,31.0,-100.00,NNE,26,2.0,4.0,70,0.00,,,0.00,32.000000,,2013-01-08 14:02:00,
2013-01-08 09:33:00,40.0,31.0,-100.00,NNE,26,2.0,4.0,70,0.00,,,0.00,32.000000,,2013-01-08 14:33:00,
2013-01-08 09:43:00,40.0,31.0,-100.00,NNE,26,2.0,4.0,70,0.00,,,0.00,32.000000,,2013-01-08 14:43:00,
2013-01-08 09:53:00,40.0,31.0,-100.00,NNE,26,2.0,4.0,70,0.00,,,0.00,32.000000,,2013-01-08 14:53:00,
2013-01-08 10:02:00,44.0,33.0,-100.00,NE,49,2.0,6.0,66,0.00,,,0.00,92.000000,,2013-01-08 15:02:00,
2013-01-08 10:23:00,44.0,33.0,-100.00,NE,49,2.0,6.0,66,0.00,,,0.00,92.000000,,2013-01-08 15:23:00,
2013-01-08 10:33:00,44.0,33.0,-100.00,NE,49,2.0,6.0,66,0.00,,,0.00,92.000000,,2013-01-08 15:33:00,
2013-01-08 10:43:00,44.0,33.0,-100.00,NE,49,2.0,6.0,66,0.00,,,0.00,92.000000,,2013-01-08 15:43:00,
2013-01-08 10:53:00,44.0,33.0,-100.00,NE,49,2.0,6.0,66,0.00,,,0.00,92.000000,,2013-01-08 15:53:00,
2013-01-08 11:02:00,47.0,33.0,-100.00,ESE,103,4.0,7.0,57,0.00,,,0.00,160.000000,,2013-01-08 16:02:00,
2013-01-08 11:34:00,47.0,33.0,-100.00,ESE,103,4.0,7.0,57,0.00,,,0.00,160.000000,,2013-01-08 16:34:00,
2013-01-08 11:43:00,47.0,33.0,-100.00,ESE,103,4.0,7.0,57,0.00,,,0.00,160.000000,,2013-01-08 16:43:00,
2013-01-08 11:53:00,47.0,33.0,-100.00,ESE,103,4.0,7.0,57,0.00,,,0.00,160.000000,,2013-01-08 16:53:00,
2013-01-08 12:02:00,49.0,33.0,-100.00,ENE,75,3.0,6.0,53,0.00,,,0.00,199.000000,,2013-01-08 17:02:00,
2013-01-08 12:34:00,49.0,33.0,-100.00,ENE,75,3.0,6.0,53,0.00,,,0.00,199.000000,,2013-01-08 17:34:00,
2013-01-08 12:43:00,49.0,33.0,-100.00,ENE,75,3.0,6.0,53,0.00,,,0.00,199.000000,,2013-01-08 17:43:00,
2013-01-08 12:54:00,49.0,33.0,-100.00,ENE,75,3.0,6.0,53,0.00,,,0.00,199.000000,,2013-01-08 17:54:00,
2013-01-08 13:02:00,49.0,34.0,-100.00,East,87,3.0,9.0,55,0.00,,,0.00,191.000000,,2013-01-08 18:02:00,
2013-01-08 13:24:00,49.0,34.0,-100.00,East,87,3.0,9.0,55,0.00,,,0.00,191.000000,,2013-01-08 18:24:00,
2013-01-08 13:33:00,49.0,34.0,-100.00,East,87,3.0,9.0,55,0.00,,,0.00,191.000000,,2013-01-08 18:33:00,
2013-01-08 13:43:00,49.0,34.0,-100.00,East,87,3.0,9.0,55,0.00,,,0.00,191.000000,,2013-01-08 18:43:00,
2013-01-08 13:53:00,49.0,34.0,-100.00,East,87,3.0,9.0,55,0.00,,,0.00,191.000000,,2013-01-08 18:53:00,
2013-01-08 14:02:00,51.0,34.0,-100.00,SE,129,3.0,5.0,53,0.00,,,0.00,147.000000,,2013-01-08 19:02:00,
2013-01-08 14:33:00,51.0,34.0,-100.00,SE,129,3.0,5.0,53,0.00,,,0.00,147.000000,,2013-01-08 19:33:00,
2013-01-08 14:43:00,51.0,34.0,-100.00,SE,129,3.0,5.0,53,0.00,,,0.00,147.000000,,2013-01-08 19:43:00,
2013-01-08 14:53:00,51.0,34.0,-100.00,SE,129,3.0,5.0,53,0.00,,,0.00,147.000000,,2013-01-08 19:53:00,
2013-01-08 15:02:00,52.0,36.0,-100.00,NE,37,3.0,6.0,54,0.00,,,0.00,145.000000,,2013-01-08 20:02:00,
2013-01-08 15:23:00,52.0,36.0,-100.00,NE,37,3.0,6.0,54,0.00,,,0.00,145.000000,,2013-01-08 20:23:00,
2013-01-08 15:33:00,52.0,36.0,-100.00,NE,37,3.0,6.0,54,0.00,,,0.00,145.000000,,2013-01-08 20:33:00,
2013-01-08 15:43:00,52.0,36.0,-100.00,NE,37,3.0,6.0,54,0.00,,,0.00,145.000000,,2013-01-08 20:43:00,
2013-01-08 15:54:00,52.0,36.0,-100.00,NE,37,3.0,6.0,54,0.00,,,0.00,145.000000,,2013-01-08 20:54:00,
2013-01-08 16:02:00,51.0,36.0,-100.00,NE,52,3.0,6.0,56,0.00,,,0.00,98.000000,,2013-01-08 21:02:00,
2013-01-08 16:33:00,51.0,36.0,-100.00,NE,52,3.0,6.0,56,0.00,,,0.00,98.000000,,2013-01-08 21:33:00,
2013-01-08 16:43:00,51.0,36.0,-100.00,NE,52,3.0,6.0,56,0.00,,,0.00,98.000000,,2013-01-08 21:43:00,
2013-01-08 16:53:00,51.0,36.0,-100.00,NE,52,3.0,6.0,56,0.00,,,0.00,98.000000,,2013-01-08 21:53:00,
2013-01-08 17:02:00,51.0,36.0,-100.00,NE,34,2.0,5.0,57,0.00,,,0.00,39.000000,,2013-01-08 22:02:00,
2013-01-08 17:33:00,51.0,36.0,-100.00,NE,34,2.0,5.0,57,0.00,,,0.00,39.000000,,2013-01-08 22:33:00,
2013-01-08 17:43:00,51.0,36.0,-100.00,NE,34,2.0,5.0,57,0.00,,,0.00,39.000000,,2013-01-08 22:43:00,
2013-01-08 17:53:00,51.0,36.0,-100.00,NE,34,2.0,5.0,57,0.00,,,0.00,39.000000,,2013-01-08 22:53:00,
2013-01-08 18:02:00,49.0,35.0,-100.00,NE,56,2.0,5.0,59,0.00,,,0.00,7.000000,,2013-01-08 23:02:00,
2013-01-08 18:33:00,49.0,35.0,-100.00,NE,56,2.0,5.0,59,0.00,,,0.00,7.000000,,2013-01-08 23:33:00,
2013-01-08 18:43:00,49.0,35.0,-100.00,NE,56,2.0,5.0,59,0.00,,,0.00,7.000000,,2013-01-08 23:43:00,
2013-01-08 18:53:00,49.0,35.0,-100.00,NE,56,2.0,5.0,59,0.00,,,0.00,7.000000,,2013-01-08 23:53:00,
2013-01-08 19:02:00,49.0,36.0,-100.00,East,97,1.0,2.0,61,0.00,,,0.00,0.000000,,2013-01-09 00:02:00,
2013-01-08 19:33:00,49.0,36.0,-100.00,East,97,1.0,2.0,61,0.00,,,0.00,0.000000,,2013-01-09 00:33:00,
2013-01-08 19:43:00,49.0,36.0,-100.00,East,97,1.0,2.0,61,0.00,,,0.00,0.000000,,2013-01-09 00:43:00,
2013-01-08 19:53:00,49.0,36.0,-100.00,East,97,1.0,2.0,61,0.00,,,0.00,0.000000,,2013-01-09 00:53:00,
2013-01-08 20:02:00,49.0,38.0,-100.00,SE,124,2.0,4.0,66,0.00,,,0.00,0.000000,,2013-01-09 01:02:00,
2013-01-08 20:33:00,49.0,38.0,-100.00,SE,124,2.0,4.0,66,0.00,,,0.00,0.000000,,2013-01-09 01:33:00,
2013-01-08 20:43:00,49.0,38.0,-100.00,SE,124,2.0,4.0,66,0.00,,,0.00,0.000000,,2013-01-09 01:43:00,
2013-01-08 20:53:00,49.0,38.0,-100.00,SE,124,2.0,4.0,66,0.00,,,0.00,0.000000,,2013-01-09 01:53:00,
2013-01-08 21:02:00,48.0,39.0,-100.00,ESE,112,1.0,3.0,70,0.00,,,0.00,0.000000,,2013-01-09 02:02:00,
2013-01-08 21:33:00,48.0,39.0,-100.00,ESE,112,1.0,3.0,70,0.00,,,0.00,0.000000,,2013-01-09 02:33:00,
2013-01-08 21:43:00,48.0,39.0,-100.00,ESE,112,1.0,3.0,70,0.00,,,0.00,0.000000,,2013-01-09 02:43:00,
2013-01-08 21:53:00,48.0,39.0,-100.00,ESE,112,1.0,3.0,70,0.00,,,0.00,0.000000,,2013-01-09 02:53:00,
2013-01-08 22:02:00,48.0,37.0,-100.00,NE,52,1.0,4.0,65,0.00,,,0.00,0.000000,,2013-01-09 03:02:00,
2013-01-08 22:33:00,48.0,37.0,-100.00,NE,52,1.0,4.0,65,0.00,,,0.00,0.000000,,2013-01-09 03:33:00,
2013-01-08 22:43:00,48.0,37.0,-100.00,NE,52,1.0,4.0,65,0.00,,,0.00,0.000000,,2013-01-09 03:43:00,
2013-01-08 22:53:00,48.0,37.0,-100.00,NE,52,1.0,4.0,65,0.00,,,0.00,0.000000,,2013-01-09 03:53:00,
2013-01-08 23:02:00,48.0,37.0,-100.00,NE,52,2.0,3.0,66,0.00,,,0.00,0.000000,,2013-01-09 04:02:00,
2013-01-08 23:23:00,48.0,37.0,-100.00,NE,52,2.0,3.0,66,0.00,,,0.00,0.000000,,2013-01-09 04:23:00,
2013-01-08 23:33:00,48.0,37.0,-100.00,NE,52,2.0,3.0,66,0.00,,,0.00,0.000000,,2013-01-09 04:33:00,
2013-01-08 23:43:00,48.0,37.0,-100.00,NE,52,2.0,3.0,66,0.00,,,0.00,0.000000,,2013-01-09 04:43:00,
2013-01-08 23:52:00,48.0,37.0,-100.00,NE,52,2.0,3.0,66,0.00,,,0.00,0.000000,,2013-01-09 04:52:00,